Location: Mountain Grove
(34.0887°N, 86.6172°W)
Time: 21:07:56
(UTC+00:00)

Cosmos 1980 - Pass Details

Date: 14 July 2020
Orbit: 839 x 847 km, 71.0° (Epoch: 08 August)

Event Time Altitude Azimuth Distance (km) Brightness Sun altitude
Rises 02:39:53 0° 210° (SSW) 3,376 6.7 -17.9°
Reaches altitude 10° 02:42:21 10° 214° (SW) 2,445 6.0 -18.3°
Maximum altitude 02:47:52 57° 293° (WNW) 978 4.3 -19.1°
Drops below altitude 10° 02:53:25 10° 12° (NNE) 2,460 6.5 -19.9°
Sets 02:55:55 0° 17° (NNE) 3,398 7.3 -20.3°
